Flag for U.S.A. Weather past 2 weeks in Arden-Arcade, California, U.S.A.

Now
54 °F

Overcast.


Feels Like: 52 °F
Forecast: 52 / 82 °F
Wind: 6 mph from Southwest

Location: Mather Field

Current Time: May 26, 2015 at 6:53:06 AM

Latest Report: May 26, 2015 at 5:47 AM


Visibility: 10 mi

Pressure: 29.95 "Hg

Humidity: 88%

Dew point: 50 °F

Location of Arden-ArcadeLocation

Historic Weather in Arden-Arcade — Graph

°F

Arden-Arcade temperature yesterday

Maximum temperature yesterday: 77 °F (at 3:45 PM)
Minimum temperature yesterday: 48 °F (at 4:55 AM)
Average temperature yesterday: 64 °F

Past Weeks' High & Low Weather Summary

 TemperatureHumidityPressure
High82 °F (May 24, 2:50 PM)100% (May 15, 2:45 AM)30.08 "Hg (May 15, 2:45 AM)
Low46 °F (May 12, 2:55 AM)25% (May 12, 4:50 PM)29.72 "Hg (May 14, 3:55 PM)
Average62 °F64%29.93 "Hg
* Reported May 11 5:45 AM — May 26 5:47 AM, Arden-Arcade, Weather by CustomWeather, © 2015

Note: Actual official high and low records may vary slightly from our data, if they occured in-between our weather recording intervals... More about our weather records

Advertising

Arden-Arcade weather history for previous 24 hours

 ConditionsComfort  
Time TempWeatherWind HumidityBarometerVisibility
5:47 AM
Tue, May 26
54 °FOvercast.6 mph88%29.95 "Hg10 mi
4:48 AM54 °FPassing clouds.8 mph88%29.95 "Hg10 mi
3:52 AM54 °FPassing clouds.9 mph88%29.95 "Hg10 mi
2:55 AM55 °FPassing clouds.12 mph82%29.95 "Hg10 mi
10:55 PM
Mon, May 25
55 °FPassing clouds.7 mph82%29.93 "Hg10 mi
9:50 PM57 °FPassing clouds.9 mph82%29.91 "Hg10 mi
8:50 PM59 °FPassing clouds.13 mph77%29.89 "Hg10 mi
7:50 PM66 °FSunny.10 mph64%29.88 "Hg10 mi
6:50 PM72 °FPassing clouds.13 mph53%29.86 "Hg10 mi
5:50 PM75 °FPassing clouds.12 mph47%29.86 "Hg10 mi
4:57 PM77 °FPassing clouds.10 mph42%29.87 "Hg10 mi
3:45 PM77 °FPassing clouds.9 mph39%29.87 "Hg10 mi
2:45 PM75 °FPassing clouds.7 mph44%29.88 "Hg10 mi
1:46 PM73 °FPassing clouds.8 mph50%29.91 "Hg10 mi
12:45 PM72 °FPassing clouds.8 mph50%29.92 "Hg10 mi
11:55 AM70 °FSunny.7 mph53%29.93 "Hg10 mi
10:45 AM66 °FSunny.10 mph56%29.93 "Hg10 mi
9:47 AM63 °FSunny.9 mph64%29.94 "Hg10 mi
8:45 AM59 °FPassing clouds.7 mph72%29.94 "Hg10 mi
7:45 AM55 °FPartly sunny.5 mph82%29.93 "Hg10 mi
6:45 AM52 °FPassing clouds.5 mph94%29.92 "Hg10 mi
Weather by CustomWeather, © 2015

See weather overviewHow to use our weather pages